View from above orbital plane
|
View from above satellite
|
Ground track
|
The orbit data is extracted from the following two-line orbital elements,
1 43669U 18083H 21020.37580551 .00000794 00000-0 42643-4 0 9990
2 43669 97.4600 48.0574 0009707 327.1969 128.3501 15.17735617123429
Epoch (UTC): | 20 January 2021 09:01:09 |
Eccentricity: | 0.0009707 |
inclination: | 97.4600° |
perigee height: | 506 km |
apogee height: | 519 km |
right ascension of ascending node: | 48.0574° |
argument of perigee: | 327.1969° |
revolutions per day: | 15.17735617 |
mean anomaly at epoch: | 128.3501° |
orbit number at epoch: | 12342 |
The dashed part of the orbit path shows where the satellite is in the earth's shadow,
|
|